Location: Courcelles
(49.2596°N, 1.7419°E)
Time: 21:41:37
(UTC+00:00)

Resurs 01 Rocket - Pass Details

Date: 17 November 2025
Orbit: 626 x 637 km, 97.7° (Epoch: 10 December)

Event Time Altitude Azimuth Distance (km) Brightness Sun altitude
Exits shadow 17:08:56 10° 46° (NE) 2,027 3.6 -9.8°
Drops below altitude 10° 17:09:04 10° 44° (NE) 2,036 3.7 -9.8°
Sets 17:13:18 0° 5° (N) 2,949 4.8 -10.5°
